******** Week 366 almanac for PRN-1 ******** ID: 1 Health: 0 Eccentricity: 0.001699447632 Time of Applicability(s): 589824 Orbital Inclination(rad): 0.9575719273 Rate of Right Ascen(r/s): -8.297488481e-09 SQRT(A) (m 1/2): 5153.563965 Right Ascen at Week(rad): 2.381847474 Argument of Perigee(rad): 0.1619873975 Mean Anom(rad): -2.500122411 Af0(s): 0.0002328853638 Af1(s/s): -7.275958e-12 week: 366 ******** Week 366 almanac for PRN-2 ******** ID: 2 Health: 0 Eccentricity: 0.01682186127 Time of Applicability(s): 589824 Orbital Inclination(rad): 0.9626292703 Rate of Right Ascen(r/s): -8.297488481e-09 SQRT(A) (m 1/2): 5153.712402 Right Ascen at Week(rad): 2.21947321 Argument of Perigee(rad): -0.7815059122 Mean Anom(rad): -0.9908819311 Af0(s): 6.406231689e-05 Af1(s/s): 7.275958e-12 week: 366 ******** Week 366 almanac for PRN-3 ******** ID: 3 Health: 0 Eccentricity: 0.006708145142 Time of Applicability(s): 589824 Orbital Inclination(rad): 0.9942496477 Rate of Right Ascen(r/s): -7.360306586e-09 SQRT(A) (m 1/2): 5153.568848 Right Ascen at Week(rad): -2.91292091 Argument of Perigee(rad): 1.20929031 Mean Anom(rad): 1.720414507 Af0(s): 0.0003941716675 Af1(s/s): -1.455192e-11 week: 366 ******** Week 366 almanac for PRN-4 ******** ID: 4 Health: 0 Eccentricity: 0.003716468811 Time of Applicability(s): 589824 Orbital Inclination(rad): 0.9708085038 Rate of Right Ascen(r/s): -7.806039438e-09 SQRT(A) (m 1/2): 5153.655762 Right Ascen at Week(rad): -1.843569645 Argument of Perigee(rad): -2.87151429 Mean Anom(rad): -1.613149702 Af0(s): 4.220576172e-05 Af1(s/s): 0 week: 366 ******** Week 366 almanac for PRN-5 ******** ID: 5 Health: 0 Eccentricity: 0.005502223968 Time of Applicability(s): 589824 Orbital Inclination(rad): 0.9807434262 Rate of Right Ascen(r/s): -7.497455156e-09 SQRT(A) (m 1/2): 5153.692871 Right Ascen at Week(rad): -2.973245379 Argument of Perigee(rad): 1.421732418 Mean Anom(rad): -0.9483248249 Af0(s): -0.0001831428589 Af1(s/s): 0 week: 366 ******** Week 366 almanac for PRN-6 ******** ID: 6 Health: 0 Eccentricity: 0.003778934479 Time of Applicability(s): 589824 Orbital Inclination(rad): 0.9863700198 Rate of Right Ascen(r/s): -8.023191341e-09 SQRT(A) (m 1/2): 5153.616699 Right Ascen at Week(rad): 2.333681376 Argument of Perigee(rad): -0.5338578965 Mean Anom(rad): 3.003219049 Af0(s): -0.0004815978882 Af1(s/s): 3.637979e-12 week: 366 ******** Week 366 almanac for PRN-7 ******** ID: 7 Health: 0 Eccentricity: 0.02076339722 Time of Applicability(s): 589824 Orbital Inclination(rad): 0.9507948482 Rate of Right Ascen(r/s): -8.023191341e-09 SQRT(A) (m 1/2): 5153.544434 Right Ascen at Week(rad): -0.8348387091 Argument of Perigee(rad): -1.976605777 Mean Anom(rad): 2.17108091 Af0(s): -0.0001379223999 Af1(s/s): -3.637979e-12 week: 366 ******** Week 366 almanac for PRN-8 ******** ID: 8 Health: 0 Eccentricity: 0.01158905029 Time of Applicability(s): 589824 Orbital Inclination(rad): 0.9428792676 Rate of Right Ascen(r/s): -8.308917528e-09 SQRT(A) (m 1/2): 5153.655762 Right Ascen at Week(rad): 1.210904061 Argument of Perigee(rad): 0.5383107851 Mean Anom(rad): -1.308625678 Af0(s): 0.0003632710205 Af1(s/s): -7.275958e-12 week: 366 ******** Week 366 almanac for PRN-9 ******** ID: 9 Health: 0 Eccentricity: 0.00335931778 Time of Applicability(s): 589824 Orbital Inclination(rad): 0.9650620679 Rate of Right Ascen(r/s): -7.828897533e-09 SQRT(A) (m 1/2): 5153.693848 Right Ascen at Week(rad): -1.908145892 Argument of Perigee(rad): 2.048097296 Mean Anom(rad): -0.7052195795 Af0(s): 0.0005991710815 Af1(s/s): -3.637979e-12 week: 366 ******** Week 366 almanac for PRN-10 ******** ID: 10 Health: 0 Eccentricity: 0.01093292236 Time of Applicability(s): 589824 Orbital Inclination(rad): 0.9937702787 Rate of Right Ascen(r/s): -7.348877539e-09 SQRT(A) (m 1/2): 5153.616211 Right Ascen at Week(rad): -2.915428609 Argument of Perigee(rad): -2.257635476 Mean Anom(rad): 0.7270597059 Af0(s): -0.0004657707275 Af1(s/s): 0 week: 366 ******** Week 366 almanac for PRN-11 ******** ID: 11 Health: 0 Eccentricity: 0.002236366272 Time of Applicability(s): 589824 Orbital Inclination(rad): 0.9632644342 Rate of Right Ascen(r/s): -8.251772291e-09 SQRT(A) (m 1/2): 5153.545898 Right Ascen at Week(rad): 2.351436379 Argument of Perigee(rad): -2.329791746 Mean Anom(rad): -2.112072834 Af0(s): -0.0002916719604 Af1(s/s): 1.455192e-11 week: 366 ******** Week 366 almanac for PRN-12 ******** ID: 12 Health: 0 Eccentricity: 0.008894920349 Time of Applicability(s): 589824 Orbital Inclination(rad): 0.9594654349 Rate of Right Ascen(r/s): -7.611745631e-09 SQRT(A) (m 1/2): 5153.707031 Right Ascen at Week(rad): 0.2829550403 Argument of Perigee(rad): 1.574639144 Mean Anom(rad): 1.462765281 Af0(s): -0.0004800905395 Af1(s/s): 0 week: 366 ******** Week 366 almanac for PRN-13 ******** ID: 13 Health: 0 Eccentricity: 0.01014661789 Time of Applicability(s): 589824 Orbital Inclination(rad): 0.9762912866 Rate of Right Ascen(r/s): -7.817468486e-09 SQRT(A) (m 1/2): 5153.613281 Right Ascen at Week(rad): -1.732395361 Argument of Perigee(rad): 0.993619952 Mean Anom(rad): -1.532545678 Af0(s): 0.0005366161133 Af1(s/s): 0 week: 366 ******** Week 366 almanac for PRN-14 ******** ID: 14 Health: 0 Eccentricity: 0.006983280182 Time of Applicability(s): 589824 Orbital Inclination(rad): 0.9428013701 Rate of Right Ascen(r/s): -7.806039438e-09 SQRT(A) (m 1/2): 5153.612305 Right Ascen at Week(rad): 0.227604774 Argument of Perigee(rad): -2.726680812 Mean Anom(rad): 1.33264581 Af0(s): 0.0005878659668 Af1(s/s): 0 week: 366 ******** Week 366 almanac for PRN-15 ******** ID: 15 Health: 0 Eccentricity: 0.01667547226 Time of Applicability(s): 589824 Orbital Inclination(rad): 0.9431369284 Rate of Right Ascen(r/s): -8.046049436e-09 SQRT(A) (m 1/2): 5153.657227 Right Ascen at Week(rad): -2.05334414 Argument of Perigee(rad): 1.509936314 Mean Anom(rad): -2.302478574 Af0(s): 0.0003195579102 Af1(s/s): 3.637979e-12 week: 366 ******** Week 366 almanac for PRN-16 ******** ID: 16 Health: 0 Eccentricity: 0.01500177383 Time of Applicability(s): 589824 Orbital Inclination(rad): 0.9585786022 Rate of Right Ascen(r/s): -7.646032773e-09 SQRT(A) (m 1/2): 5153.628906 Right Ascen at Week(rad): 0.2998426857 Argument of Perigee(rad): 0.9332291956 Mean Anom(rad): -0.2609231663 Af0(s): 0.0001952016479 Af1(s/s): 7.275958e-12 week: 366 ******** Week 366 almanac for PRN-17 ******** ID: 17 Health: 0 Eccentricity: 0.01259088516 Time of Applicability(s): 589824 Orbital Inclination(rad): 0.9584527679 Rate of Right Ascen(r/s): -8.183198006e-09 SQRT(A) (m 1/2): 5153.570312 Right Ascen at Week(rad): 1.316364491 Argument of Perigee(rad): -1.114358396 Mean Anom(rad): -1.342439543 Af0(s): -9.119459228e-05 Af1(s/s): -7.275958e-12 week: 366 ******** Week 366 almanac for PRN-18 ******** ID: 18 Health: 0 Eccentricity: 0.005871295929 Time of Applicability(s): 589824 Orbital Inclination(rad): 0.9713298175 Rate of Right Ascen(r/s): -8.171768958e-09 SQRT(A) (m 1/2): 5153.580566 Right Ascen at Week(rad): 2.327977259 Argument of Perigee(rad): -2.870897102 Mean Anom(rad): 2.956503042 Af0(s): -0.000295440332 Af1(s/s): 1.091394e-11 week: 366 ******** Week 366 almanac for PRN-19 ******** ID: 19 Health: 0 Eccentricity: 0.01136302948 Time of Applicability(s): 589824 Orbital Inclination(rad): 0.9575899037 Rate of Right Ascen(r/s): -8.228914196e-09 SQRT(A) (m 1/2): 5153.681641 Right Ascen at Week(rad): 1.360236117 Argument of Perigee(rad): 2.95451441 Mean Anom(rad): 0.4166394437 Af0(s): 0.0005509359253 Af1(s/s): 0 week: 366 ******** Week 366 almanac for PRN-20 ******** ID: 20 Health: 0 Eccentricity: 0.002190113068 Time of Applicability(s): 589824 Orbital Inclination(rad): 0.9604541334 Rate of Right Ascen(r/s): -7.931758961e-09 SQRT(A) (m 1/2): 5153.702637 Right Ascen at Week(rad): -1.902772091 Argument of Perigee(rad): -1.908306181 Mean Anom(rad): 1.368963255 Af0(s): 9.044091797e-05 Af1(s/s): 1.818989e-11 week: 366 ******** Week 366 almanac for PRN-21 ******** ID: 21 Health: 0 Eccentricity: 0.0008444786072 Time of Applicability(s): 589824 Orbital Inclination(rad): 0.9636479294 Rate of Right Ascen(r/s): -7.646032773e-09 SQRT(A) (m 1/2): 5153.749512 Right Ascen at Week(rad): -2.908090519 Argument of Perigee(rad): -0.1783117844 Mean Anom(rad): 1.028842712 Af0(s): 0.0003278483276 Af1(s/s): 0 week: 366 ******** Week 366 almanac for PRN-22 ******** ID: 22 Health: 0 Eccentricity: 0.01199817657 Time of Applicability(s): 589824 Orbital Inclination(rad): 0.9580273279 Rate of Right Ascen(r/s): -7.657461821e-09 SQRT(A) (m 1/2): 5153.580566 Right Ascen at Week(rad): 0.3032035118 Argument of Perigee(rad): -0.9930510758 Mean Anom(rad): -0.6947966744 Af0(s): -1.281246338e-05 Af1(s/s): 7.275958e-12 week: 366 ******** Week 366 almanac for PRN-23 ******** ID: 23 Health: 0 Eccentricity: 0.006115913391 Time of Applicability(s): 589824 Orbital Inclination(rad): 0.9887369042 Rate of Right Ascen(r/s): -7.428880871e-09 SQRT(A) (m 1/2): 5153.675293 Right Ascen at Week(rad): -2.947720852 Argument of Perigee(rad): -2.740785121 Mean Anom(rad): 1.791943477 Af0(s): 0.0005042081177 Af1(s/s): 3.637979e-12 week: 366 ******** Week 366 almanac for PRN-24 ******** ID: 24 Health: 0 Eccentricity: 0.01800251007 Time of Applicability(s): 589824 Orbital Inclination(rad): 0.9347599552 Rate of Right Ascen(r/s): -8.320346576e-09 SQRT(A) (m 1/2): 5153.572266 Right Ascen at Week(rad): -0.9442089927 Argument of Perigee(rad): 1.141846089 Mean Anom(rad): -3.130128246 Af0(s): -2.336390381e-05 Af1(s/s): 1.818989e-11 week: 366 ******** Week 366 almanac for PRN-25 ******** ID: 25 Health: 0 Eccentricity: 0.01287841797 Time of Applicability(s): 589824 Orbital Inclination(rad): 0.9478347446 Rate of Right Ascen(r/s): -7.737465153e-09 SQRT(A) (m 1/2): 5153.660645 Right Ascen at Week(rad): 0.1886564176 Argument of Perigee(rad): 1.160573687 Mean Anom(rad): 1.35557313 Af0(s): 0.0003391534424 Af1(s/s): -3.637979e-12 week: 366 ******** Week 366 almanac for PRN-26 ******** ID: 26 Health: 0 Eccentricity: 0.01103019714 Time of Applicability(s): 589824 Orbital Inclination(rad): 0.9285820873 Rate of Right Ascen(r/s): -7.954617056e-09 SQRT(A) (m 1/2): 5153.691895 Right Ascen at Week(rad): 0.1132932447 Argument of Perigee(rad): 0.7131988262 Mean Anom(rad): 0.5306588575 Af0(s): -0.00028112052 Af1(s/s): -3.637979e-12 week: 366 ******** Week 366 almanac for PRN-27 ******** ID: 27 Health: 0 Eccentricity: 0.0143661499 Time of Applicability(s): 589824 Orbital Inclination(rad): 0.9519513259 Rate of Right Ascen(r/s): -8.240343243e-09 SQRT(A) (m 1/2): 5153.619629 Right Ascen at Week(rad): 1.243349478 Argument of Perigee(rad): 0.8949081384 Mean Anom(rad): -1.197989561 Af0(s): -8.893356934e-05 Af1(s/s): -1.818989e-11 week: 366 ******** Week 366 almanac for PRN-28 ******** ID: 28 Health: 0 Eccentricity: 0.0004119873047 Time of Applicability(s): 589824 Orbital Inclination(rad): 0.9617064849 Rate of Right Ascen(r/s): -7.954617056e-09 SQRT(A) (m 1/2): 5153.506836 Right Ascen at Week(rad): -0.86006363 Argument of Perigee(rad): -0.3929095548 Mean Anom(rad): 2.887907586 Af0(s): -0.0004363774292 Af1(s/s): 1.091394e-11 week: 366 ******** Week 366 almanac for PRN-29 ******** ID: 29 Health: 0 Eccentricity: 0.003520488739 Time of Applicability(s): 589824 Orbital Inclination(rad): 0.9611072737 Rate of Right Ascen(r/s): -8.183198006e-09 SQRT(A) (m 1/2): 5153.685059 Right Ascen at Week(rad): 1.333229292 Argument of Perigee(rad): 2.762315156 Mean Anom(rad): -1.368561783 Af0(s): -0.000266800708 Af1(s/s): 7.275958e-12 week: 366 ******** Week 366 almanac for PRN-30 ******** ID: 30 Health: 0 Eccentricity: 0.008210659027 Time of Applicability(s): 589824 Orbital Inclination(rad): 0.9360722279 Rate of Right Ascen(r/s): -8.206056101e-09 SQRT(A) (m 1/2): 5153.665039 Right Ascen at Week(rad): -0.8445238353 Argument of Perigee(rad): -2.287172471 Mean Anom(rad): 1.943056314 Af0(s): 0.0001522422119 Af1(s/s): 1.455192e-11 week: 366 ******** Week 366 almanac for PRN-31 ******** ID: 31 Health: 0 Eccentricity: 0.0108127594 Time of Applicability(s): 589824 Orbital Inclination(rad): 0.9545578948 Rate of Right Ascen(r/s): -8.034620388e-09 SQRT(A) (m 1/2): 5153.525391 Right Ascen at Week(rad): -0.8104122372 Argument of Perigee(rad): 0.9446164563 Mean Anom(rad): 1.09187599 Af0(s): -0.0001220952393 Af1(s/s): 3.637979e-12 week: 366 ******** Week 366 almanac for PRN-32 ******** ID: 32 Health: 0 Eccentricity: 0.009380817413 Time of Applicability(s): 589824 Orbital Inclination(rad): 0.9680761005 Rate of Right Ascen(r/s): -7.806039438e-09 SQRT(A) (m 1/2): 5153.694336 Right Ascen at Week(rad): -1.890984107 Argument of Perigee(rad): -1.980709625 Mean Anom(rad): -0.6515025384 Af0(s): 7.536743164e-06 Af1(s/s): 1.818989e-11 week: 366